[[[{"header":{"parameterUnit":"kt","parameterCategory":2,"dx":1,"dy":1,"la1":30.253999710083008,"la2":30.299108505249023,"lo1":-89.0895004272461,"lo2":-89.04439544677734,"nx":28,"ny":28,"refTime":"2022-10-26T21:00:00:Z","depth":0,"parameterNumber":1,"parameterNumberName":"U-component_of_WINDS"},"data":[-9.4689,-9.496,-9.494,-9.524,-9.5272,-9.5473,-9.5538,-9.562,-9.5679,-9.5916,-9.6048,-9.6055,-9.6105,-9.6257,-9.6399,-9.6398,-9.6459,-9.6571,-9.655,-9.6069,-9.6001,-9.5936,-9.5869,-9.6585,-9.6586,-9.7051,-9.7055,-9.7059,-9.4339,-9.4373,-9.4527,-9.466,-9.479,-9.467,-9.4766,-9.4882,-9.5065,-9.5141,-9.5269,-9.5476,-9.5636,-9.5648,-9.5798,-9.5924,-9.5875,-9.5966,-9.5955,-9.5965,-9.545,-9.538,-9.6003,-9.6003,-9.6003,-9.6003,-9.6003,-9.6002,-9.3695,-9.386,-9.3927,-9.4092,-9.4153,-9.4242,-9.4395,-9.4397,-9.4545,-9.4699,-9.4644,-9.485,-9.492,-9.5089,-9.514,-9.53,-9.5194,-9.5287,-9.531,-9.5333,-9.5363,-9.4694,-9.5324,-9.5322,-9.5321,-9.5319,-9.5318,0,-9.3217,-9.3188,-9.3331,-9.3471,-9.3589,-9.3694,-9.3787,-9.388,-9.3808,-9.3934,-9.4114,-9.4213,-9.441,-9.4576,-9.4711,-9.4744,-9.463,-9.4616,-9.4679,-9.4709,-9.4718,-9.4715,-9.3876,-9.4597,-9.4591,-9.4586,-9.4583,-9.4581,-9.2564,-9.2759,-9.2817,-9.2922,-9.2966,-9.3136,-9.3232,-9.3153,-9.3259,-9.336,-9.3509,-9.3674,-9.3802,-9.4094,-9.4092,-9.424,-9.4185,-9.4463,-9.4206,-9.4227,-9.4188,-9.4177,-9.4196,-9.4514,-9.4522,-9.4529,-9.4535,0,-9.2199,-9.216,-9.2453,-9.2491,-9.2506,-9.2714,-9.2745,-9.2906,-9.2889,-9.3107,-9.3153,-9.3128,-9.3305,-9.3258,-9.3452,-9.3422,-9.3763,-9.3706,-9.3738,-9.3723,-9.3967,-9.3945,-9.4766,-9.4869,-9.4127,-9.4135,-9.4141,0,-9.1627,-9.1885,-9.1811,-9.1983,-9.2266,-9.2178,-9.2461,-9.2474,-9.2531,-9.2702,-9.2563,-9.2727,-9.264,-9.2798,-9.2754,-9.3024,-9.306,-9.3053,-9.3038,-9.3065,-9.3066,-9.3119,-9.3084,-9.2997,-9.2993,-9.2989,-9.2986,0,-9.1058,-9.132,-9.1599,-9.1652,-9.1717,-9.185,-9.1884,-9.1946,-9.2041,-9.2156,-9.2217,-9.2358,-9.2436,-9.2548,-9.249,-9.2317,-9.2819,-9.257,-9.2811,-9.2813,-9.2924,-9.2918,-9.3658,-9.2981,-9.298,-9.2978,-9.2977,0,-9.0588,-9.0706,-9.1117,-9.1166,-9.1238,-9.1423,-9.1554,-9.17,-9.1777,-9.176,-9.185,-9.1751,-9.1983,-9.1739,-9.2057,-9.1849,-9.1933,-9.1947,-9.1963,-9.1981,-9.1709,-9.2132,-9.2842,-9.2914,-9.1998,-9.199,-9.1982,0,-8.9947,-9.035,-9.0276,-9.0668,-9.0847,-9.0677,-9.088,-9.095,-9.0945,-9.1095,-9.1087,-9.1261,-9.1069,-9.1116,-9.128,-9.1279,-9.1551,-9.1241,-9.1461,-9.1469,-9.1445,-9.2097,-9.2214,-9.2692,-9.1877,-9.1888,-9.1896,0,-8.9445,-8.952,-8.9595,-8.9651,-8.9729,-8.9878,-9.0112,-9.0262,-9.0367,-9.0461,-9.0654,-9.0896,-9.0761,-9.0841,-9.0775,-9.0948,-9.1364,-9.0779,-9.078,-9.0886,-9.182,-9.193,-9.2011,-9.1282,-9.1295,-9.1305,-9.1813,0,-8.8743,-8.8938,-8.9139,-8.9268,-8.9375,-8.9617,-8.9563,-8.9683,-8.9607,-8.9594,-8.9877,-8.9923,-9.0077,-9.0155,-9.0084,-9.0495,-9.0419,-9.0273,-9.0031,-9.046,-9.0626,-9.0694,-8.9788,-8.978,-8.9774,-8.9769,0,0,-8.814,-8.8417,-8.8327,-8.8549,-8.8633,-8.8452,-8.8716,-8.8777,-8.8906,-8.8968,-8.8833,-8.9181,-8.9225,-8.9574,-8.9704,-8.9767,-8.9835,-8.9688,-9.0256,-9.0311,-9.0361,-9.054,-9.0611,-8.9758,-8.9756,-8.9753,-8.9751,0,-8.7871,-8.7917,-8.8179,-8.8237,-8.8321,-8.8293,-8.8357,-8.8407,-8.8411,-8.8687,-8.8533,-8.8697,-8.8978,-8.9044,-8.9114,-8.9644,-8.9519,-8.9695,-8.9998,-9.0195,-9.0258,-9.0314,-9.0502,-9.0571,-8.9736,-8.9737,-8.9738,0,-8.7366,-8.7402,-8.7522,-8.7705,-8.7757,-8.7946,-8.7679,-8.7889,-8.8028,-8.7818,-8.8095,-8.8114,-8.8197,-8.8535,-8.8684,-8.8565,-8.9235,-8.9014,-8.9052,-8.9067,-8.9256,-8.9331,-8.9399,-8.8511,-8.8507,-8.8503,0,0,-8.7141,-8.7321,-8.7334,-8.7643,-8.7687,-8.7649,-8.7744,-8.7677,-8.7754,-8.7787,-8.7807,-8.7888,-8.8049,-8.8159,-8.8308,-8.8686,-8.8696,-8.8865,-8.8923,-8.897,-8.9012,-8.9213,-8.9288,-8.8488,-8.8487,-8.8487,0,0,-8.7033,-8.706,-8.6969,-8.732,-8.7399,-8.7432,-8.7623,-8.7512,-8.764,-8.7606,-8.7505,-8.7522,-8.7836,-8.7861,-8.7662,-8.8221,-8.7983,-8.8029,-8.8193,-8.8266,-8.8322,-8.831,-8.7395,0,0,0,0,0,-8.673,-8.7055,-8.6973,-8.7023,-8.7253,-8.7477,-8.7506,-8.7429,-8.7261,-8.7415,-8.7414,-8.7273,-8.7732,-8.7554,-8.7606,-8.7829,-8.829,-8.8325,-8.8358,-8.8658,-8.8734,-8.8799,0,0,0,0,0,0,-8.6749,-8.6811,-8.6964,-8.7012,-8.7063,-8.7465,-8.7164,-8.7152,-8.7243,-8.7212,-8.7278,-8.7275,-8.7214,-8.7521,-8.757,-8.7783,-8.7378,-8.8304,-8.8334,-8.836,-8.8684,-8.8747,-8.88,0,0,0,0,0,-8.6763,-8.6813,-8.7202,-8.7007,-8.7051,-8.7026,-8.7151,-8.7139,-8.7208,-8.7207,-8.72,-8.7141,-8.7222,-8.7258,-8.755,-8.7763,-8.7344,-8.7362,-8.8323,-8.8347,-8.8368,-8.8715,0,0,0,0,0,0,-8.6774,-8.6804,-8.7209,-8.722,-8.6877,-8.7002,-8.7018,-8.7128,-8.7195,-8.7191,-8.7064,-8.7039,-8.7232,-8.7257,-8.7286,-8.7761,-8.7316,-8.7335,-8.7347,-8.8341,-8.8359,-8.8376,0,0,0,0,0,0,-8.6776,-8.6814,-8.7214,-8.7055,-8.7047,-8.698,-8.6995,-8.7232,-8.7198,-8.7047,-8.7028,-8.7052,-8.719,-8.726,-8.7281,-8.7654,-8.7295,-8.7313,-8.7325,-8.7333,-8.8356,-8.8371,0,0,0,0,0,0,-8.6791,-8.6823,-8.7052,-8.7046,-8.7037,-8.715,-8.7188,-8.7428,-8.7061,-8.7047,-8.7026,-8.701,-8.7197,-8.7216,-8.7278,-8.7644,-8.7651,-8.7296,-8.7308,-8.7317,-8.7322,0,0,0,0,0,0,0,-8.6802,-8.6604,-8.7147,-8.7038,-8.703,-8.7317,-8.732,-8.7323,-8.7057,-8.7043,-8.7029,-8.7016,-8.7193,-8.7213,-8.7233,-8.7635,0,0,-8.7294,-8.7303,0,0,0,0,0,0,0,0,-8.6588,-8.66,-8.7147,-8.7149,-8.7151,-8.7318,-8.732,-8.7323,-8.7055,-8.7044,-8.7032,-8.7022,-8.7199,-8.7214,-8.723,0,0,0,0,0,0,0,0,0,0,0,0,0,0,0,-8.7147,-8.7149,0,-8.7318,-8.732,-8.7322,-8.7053,-8.7044,-8.7035,-8.7026,-8.7203,-8.7216,-8.7229,0,0,0,0,0,0,0,0,0,0,0,0,0,0,0,0,0,0,0,0,0,0,0,0,0,0,0,0,0,0,0,0,0,0,0,0,0,0,0,0,0,0,0,0,0,0,0,0,0,0,0,0,0,0,0,0,0,0,0,0,0,0,0,0,0,0,0,0,0]}],[{"header":{"parameterUnit":"kt","parameterCategory":2,"dx":1,"dy":1,"la1":30.253999710083008,"la2":30.299108505249023,"lo1":-89.0895004272461,"lo2":-89.04439544677734,"nx":28,"ny":28,"refTime":"2022-10-26T21:00:00:Z","depth":0,"parameterNumber":2,"parameterNumberName":"V-component_of_WINDS"},"data":[-5.1186,-5.1219,-5.1212,-5.1245,-5.1245,-5.1266,-5.1272,-5.1278,-5.1281,-5.1305,-5.1317,-5.1315,-5.1316,-5.1328,-5.1341,-5.1339,-5.1344,-5.1358,-5.1353,-5.1297,-5.1288,-5.128,-5.1272,-5.136,-5.136,-5.1411,-5.1412,-5.1412,-5.1138,-5.1138,-5.1155,-5.1167,-5.1181,-5.1163,-5.1171,-5.1183,-5.1203,-5.1209,-5.1222,-5.1242,-5.1258,-5.1255,-5.1269,-5.1282,-5.1274,-5.1286,-5.1283,-5.1283,-5.1223,-5.1214,-5.1291,-5.1291,-5.1291,-5.1291,-5.1291,-5.1291,-5.1047,-5.1068,-5.1072,-5.1091,-5.1096,-5.1104,-5.1122,-5.1119,-5.1136,-5.1151,-5.1143,-5.1165,-5.117,-5.1185,-5.119,-5.1206,-5.1192,-5.1203,-5.1205,-5.1208,-5.121,-5.1129,-5.1209,-5.1208,-5.1208,-5.1208,-5.1208,0,-5.0978,-5.0972,-5.099,-5.1005,-5.1019,-5.103,-5.104,-5.1052,-5.1038,-5.1053,-5.1073,-5.1084,-5.1106,-5.1123,-5.1137,-5.1139,-5.1122,-5.1121,-5.1128,-5.1131,-5.113,-5.1128,-5.1027,-5.1119,-5.1118,-5.1118,-5.1117,-5.1117,-5.0884,-5.0911,-5.0915,-5.0928,-5.0932,-5.0954,-5.0966,-5.0953,-5.0966,-5.0976,-5.0995,-5.1014,-5.1028,-5.1062,-5.106,-5.1076,-5.1068,-5.1103,-5.107,-5.1071,-5.1064,-5.1062,-5.1062,-5.1109,-5.111,-5.1111,-5.1111,0,-5.083,-5.0823,-5.0864,-5.0866,-5.0868,-5.0896,-5.0897,-5.0918,-5.0915,-5.0943,-5.0948,-5.0943,-5.0964,-5.0956,-5.098,-5.0974,-5.1015,-5.1009,-5.1012,-5.1009,-5.1037,-5.1033,-5.1137,-5.1148,-5.106,-5.1061,-5.1062,0,-5.0745,-5.0783,-5.0769,-5.0794,-5.0833,-5.082,-5.0859,-5.086,-5.0866,-5.0888,-5.0869,-5.089,-5.0878,-5.0897,-5.089,-5.0923,-5.0929,-5.0925,-5.0923,-5.0926,-5.0926,-5.0932,-5.0926,-5.092,-5.092,-5.0919,-5.0919,0,-5.066,-5.07,-5.0739,-5.0747,-5.0755,-5.0774,-5.0778,-5.0786,-5.0799,-5.0814,-5.0822,-5.0841,-5.0851,-5.0865,-5.0856,-5.0833,-5.0897,-5.0865,-5.0894,-5.0894,-5.0908,-5.0907,-5.1002,-5.0918,-5.0918,-5.0918,-5.0918,0,-5.0592,-5.0609,-5.0669,-5.0674,-5.0686,-5.0713,-5.073,-5.0752,-5.0763,-5.076,-5.0773,-5.0759,-5.0791,-5.0758,-5.08,-5.0773,-5.0783,-5.0784,-5.0786,-5.0787,-5.0751,-5.0802,-5.0895,-5.0903,-5.0788,-5.0787,-5.0786,0,-5.0493,-5.0554,-5.0545,-5.0603,-5.063,-5.0606,-5.0636,-5.0647,-5.0647,-5.0668,-5.0668,-5.0693,-5.0668,-5.0675,-5.0697,-5.0697,-5.0733,-5.0693,-5.072,-5.0721,-5.0715,-5.0801,-5.0816,-5.0875,-5.0773,-5.0774,-5.0775,0,-5.0417,-5.0431,-5.0442,-5.045,-5.0465,-5.0489,-5.0524,-5.0548,-5.0562,-5.0579,-5.0606,-5.0645,-5.0625,-5.0639,-5.0632,-5.0655,-5.0708,-5.0632,-5.0632,-5.0643,-5.0767,-5.0779,-5.079,-5.0698,-5.0699,-5.0701,-5.0764,0,-5.0307,-5.034,-5.0372,-5.0395,-5.0413,-5.0451,-5.0446,-5.0465,-5.0455,-5.0455,-5.0498,-5.0508,-5.0533,-5.0545,-5.0538,-5.0595,-5.0584,-5.0565,-5.0532,-5.059,-5.061,-5.0619,-5.0501,-5.05,-5.05,-5.0499,0,0,-5.0213,-5.0261,-5.0252,-5.0288,-5.0302,-5.0279,-5.032,-5.0332,-5.0357,-5.0367,-5.0349,-5.0405,-5.0415,-5.0467,-5.0485,-5.0497,-5.0505,-5.0487,-5.0563,-5.057,-5.0577,-5.0599,-5.0608,-5.0498,-5.0497,-5.0497,-5.0497,0,-5.0173,-5.0186,-5.0228,-5.024,-5.0258,-5.0257,-5.0267,-5.0281,-5.0283,-5.0327,-5.0307,-5.0333,-5.0382,-5.0392,-5.0405,-5.048,-5.0464,-5.0489,-5.0529,-5.0555,-5.0564,-5.0571,-5.0594,-5.0603,-5.0495,-5.0495,-5.0495,0,-5.0094,-5.0105,-5.0127,-5.0162,-5.0175,-5.0205,-5.0169,-5.0206,-5.0227,-5.0203,-5.0247,-5.0253,-5.0269,-5.0322,-5.0345,-5.0329,-5.0426,-5.0397,-5.0402,-5.0404,-5.0429,-5.0439,-5.0448,-5.033,-5.033,-5.0329,0,0,-5.006,-5.0092,-5.0101,-5.0154,-5.0162,-5.0163,-5.018,-5.0174,-5.019,-5.0197,-5.0205,-5.0221,-5.0248,-5.0266,-5.0292,-5.0351,-5.0352,-5.0377,-5.0385,-5.0391,-5.0397,-5.0423,-5.0433,-5.0327,-5.0327,-5.0327,0,0,-5.0043,-5.0056,-5.0045,-5.0106,-5.0122,-5.0135,-5.0167,-5.0153,-5.0177,-5.0172,-5.0163,-5.0167,-5.0216,-5.0223,-5.0195,-5.028,-5.0248,-5.0255,-5.0274,-5.0283,-5.0291,-5.0288,-5.016,0,0,0,0,0,-5.0,-5.0054,-5.0044,-5.0054,-5.0101,-5.0141,-5.0147,-5.0141,-5.0117,-5.0141,-5.0145,-5.0128,-5.0205,-5.018,-5.0189,-5.0221,-5.03,-5.0304,-5.0309,-5.0347,-5.0357,-5.0366,0,0,0,0,0,0,-5.0004,-5.0016,-5.0042,-5.0058,-5.0069,-5.0139,-5.0097,-5.0097,-5.0114,-5.011,-5.0128,-5.0129,-5.0124,-5.0175,-5.0183,-5.0213,-5.0158,-5.0301,-5.0306,-5.0309,-5.035,-5.0359,-5.0366,0,0,0,0,0,-5.0007,-5.0017,-5.0095,-5.0057,-5.0066,-5.0071,-5.0095,-5.0095,-5.0108,-5.0116,-5.0116,-5.0102,-5.0125,-5.0132,-5.018,-5.021,-5.0152,-5.0155,-5.0304,-5.0307,-5.031,-5.0354,0,0,0,0,0,0,-5.0009,-5.0016,-5.0097,-5.0099,-5.0037,-5.0067,-5.0071,-5.0093,-5.0112,-5.0113,-5.0089,-5.0085,-5.0127,-5.0132,-5.0137,-5.0208,-5.0147,-5.015,-5.0152,-5.0307,-5.0309,-5.0311,0,0,0,0,0,0,-5.0011,-5.0019,-5.0098,-5.0073,-5.0073,-5.0063,-5.0067,-5.0108,-5.0113,-5.0084,-5.0082,-5.0087,-5.0119,-5.0132,-5.0136,-5.0199,-5.0143,-5.0146,-5.0148,-5.015,-5.0309,-5.0311,0,0,0,0,0,0,-5.0014,-5.0021,-5.0073,-5.0073,-5.0072,-5.0099,-5.0099,-5.0148,-5.0092,-5.0084,-5.0087,-5.0084,-5.0119,-5.0123,-5.0135,-5.0197,-5.0199,-5.0143,-5.0145,-5.0147,-5.0148,0,0,0,0,0,0,0,-5.0017,-4.9975,-5.0082,-5.0072,-5.0071,-5.0122,-5.0123,-5.0124,-5.0091,-5.0089,-5.0087,-5.0085,-5.0125,-5.0128,-5.0132,-5.0195,0,0,-5.0143,-5.0144,0,0,0,0,0,0,0,0,-4.9972,-4.9974,-5.0082,-5.0083,-5.0083,-5.0123,-5.0123,-5.0124,-5.0091,-5.0089,-5.0087,-5.0086,-5.0126,-5.0129,-5.0131,0,0,0,0,0,0,0,0,0,0,0,0,0,0,0,-5.0082,-5.0083,0,-5.0123,-5.0123,-5.0124,-5.0091,-5.0089,-5.0088,-5.0087,-5.0127,-5.0129,-5.0131,0,0,0,0,0,0,0,0,0,0,0,0,0,0,0,0,0,0,0,0,0,0,0,0,0,0,0,0,0,0,0,0,0,0,0,0,0,0,0,0,0,0,0,0,0,0,0,0,0,0,0,0,0,0,0,0,0,0,0,0,0,0,0,0,0,0,0,0,0]}]]]